Wind_Speed
24 23 22 20 17 20 23 23 22 22 21 18 16 16 15 15 15 12 10 9 8 8 9 9 9 8 8 8 6 6 6 5 4 4 4 4 5 7 8 8 8 9 10 10 10 9 10 11 11 10 8 7 7 6 7 8 8 9 9 8 10 9 9 10 8 5 3 4 6 9 10 11 13 16 17 17 16 16 15 14 13 13 13 13 14
26 26 25 20 18 22 25 24 24 23 22 22 22 19 17 17 16 14 12 10 9 8 9 9 9 8 9 9 9 8 7 7 7 6 5 5 4 5 6 6 6 7 7 8 8 8 7 7 8 8 7 6 6 5 5 5 5 6 6 6 8 8 7 8 7 5 3 4 5 8 10 12 15 17 18 19 18 17 16 16 16 15 15 15 15
25 27 26 23 21 23 25 25 24 23 24 25 23 20 17 17 17 15 14 11 10 10 10 11 11 10 9 10 11 11 10 10 9 9 8 7 6 5 5 5 5 5 6 6 6 6 6 5 5 5 5 4 4 4 4 4 3 4 5 5 6 7 7 8 7 5 5 4 6 9 10 12 15 17 18 19 18 17 18 18 17 18 18 18 18
22 25 25 24 23 24 25 24 23 23 25 24 21 19 17 17 17 15 14 11 9 9 10 11 12 12 11 11 11 12 13 12 12 11 10 10 9 8 7 6 6 5 5 5 5 6 6 5 5 4 4 3 3 3 2 2 1 2 3 4 5 6 6 8 9 8 6 6 6 8 11 12 14 16 18 18 18 18 19 20 19 20 21 22 22
19 22 23 23 24 25 24 21 20 22 24 22 19 17 17 18 18 17 15 12 9 8 8 8 9 10 11 12 12 12 13 14 14 12 12 11 12 12 11 10 8 7 7 6 6 6 6 6 5 5 5 5 4 3 2 2 1 0 1 2 3 4 6 7 9 9 8 7 6 7 10 12 14 15 18 20 20 20 21 22 21 23 26 25 25
15 18 21 22 23 24 23 20 18 20 23 22 19 17 17 18 18 17 15 12 10 10 9 9 8 10 11 12 14 14 13 14 15 14 13 12 12 15 16 15 12 11 10 9 9 9 9 8 7 7 7 7 6 5 5 4 3 2 1 0 1 3 4 6 8 9 8 7 6 7 9 12 14 15 17 20 21 21 24 26 25 26 29 29 29
13 16 19 22 23 25 23 19 17 18 20 21 20 19 19 19 18 16 14 11 9 9 9 10 11 13 14 15 16 17 16 15 14 15 14 13 13 16 20 20 17 14 13 12 11 11 11 11 11 11 10 9 8 8 6 5 4 3 2 1 1 1 3 5 6 7 8 7 7 8 10 11 13 14 16 18 19 20 25 28 29 31 31 31 32
13 15 18 21 23 23 21 18 16 16 17 18 19 20 20 20 18 17 15 14 14 13 11 11 13 15 17 18 18 19 18 16 16 16 15 14 15 16 20 23 22 17 15 15 14 13 13 13 14 14 13 12 11 10 9 8 7 6 5 4 3 2 2 3 4 6 6 6 7 8 10 12 13 15 16 18 19 19 21 23 25 30 32 33 31
13 15 18 20 21 21 19 17 16 16 16 18 19 19 21 21 20 21 20 19 19 17 14 12 13 16 19 20 20 20 19 19 19 19 17 18 19 19 19 22 23 20 18 18 18 17 16 16 16 16 16 15 14 12 11 10 9 7 6 6 5 3 2 2 4 4 5 5 6 8 11 13 14 16 17 18 18 18 20 20 22 25 29 33 31
13 15 17 18 20 20 19 18 18 18 18 19 19 19 21 23 23 24 24 23 21 20 17 14 15 18 21 21 21 22 21 22 23 21 20 19 20 19 19 20 21 19 18 19 19 18 18 18 18 18 18 17 16 14 13 12 10 9 8 6 5 4 3 3 3 3 4 5 6 7 10 12 12 13 15 16 16 18 20 22 23 26 28 31 30
11 13 14 16 18 19 19 19 19 19 19 19 19 19 20 22 21 21 22 22 23 22 20 18 19 22 21 19 18 20 22 23 23 20 18 18 18 18 18 18 18 17 16 16 17 17 17 18 18 19 20 19 18 16 14 13 11 10 7 5 4 4 4 3 3 4 5 5 6 7 8 10 11 12 13 15 17 18 20 21 22 24 24 22 21
5 9 11 13 15 16 17 18 18 18 19 18 18 19 19 19 18 18 19 20 21 21 20 20 21 22 19 16 16 19 22 21 19 17 16 15 15 16 16 16 15 13 13 14 14 14 15 15 16 18 19 19 18 17 15 14 12 9 7 6 6 5 4 3 4 5 6 6 7 7 7 8 10 11 13 15 17 18 20 21 21 21 21 18 17
2 3 6 9 12 14 15 16 17 17 17 17 17 17 17 15 15 16 17 17 18 19 18 18 18 18 17 15 16 19 20 18 15 12 10 9 10 11 12 12 11 10 11 11 12 12 13 13 14 14 15 16 17 16 16 15 12 10 9 8 7 6 5 5 6 7 7 8 8 8 8 8 9 10 12 13 16 18 20 21 21 20 19 19 19
4 2 1 3 6 9 12 14 16 16 16 15 15 15 14 13 13 14 14 15 16 16 16 16 16 17 17 16 17 17 16 14 11 8 5 5 5 6 7 7 8 8 8 9 9 10 10 11 11 11 12 13 13 15 16 15 13 11 10 8 7 6 7 7 7 7 7 7 8 8 8 8 9 10 12 13 14 16 17 18 19 19 19 19 20
8 6 4 3 3 4 6 8 9 11 13 13 12 10 8 7 8 9 11 12 13 13 12 13 14 14 14 14 13 12 11 10 8 6 4 2 2 3 4 5 5 4 5 5 6 6 6 6 7 7 8 10 12 15 15 13 12 11 9 7 6 6 6 6 5 6 6 6 6 7 8 9 10 11 12 14 14 14 14 15 16 17 19 20 21
14 11 8 7 6 6 5 5 5 6 7 8 7 6 5 5 5 6 7 8 9 9 8 9 10 10 11 11 10 9 9 8 7 5 4 2 0 2 2 2 1 1 1 1 2 2 2 2 3 4 7 10 14 14 12 10 9 8 7 6 6 5 4 4 5 5 5 6 7 8 8 10 11 12 13 13 14 14 14 15 16 17 18 19 21
15 16 14 11 8 7 7 6 6 6 6 7 7 7 6 6 7 7 8 9 9 9 8 8 7 7 6 7 6 7 7 7 6 5 4 2 1 2 2 1 1 2 2 2 2 2 2 1 1 4 8 11 12 10 8 7 7 7 7 6 4 4 3 4 5 5 6 7 7 7 8 9 10 12 12 12 13 13 14 16 16 17 16 15 15
8 10 12 13 10 7 7 7 7 9 9 9 9 9 8 8 8 8 8 9 10 10 9 9 8 7 5 5 5 5 6 6 5 5 4 2 1 2 3 2 3 3 3 4 4 4 5 5 4 6 8 9 8 7 6 5 5 6 5 5 4 4 3 3 4 5 6 6 7 7 8 10 11 12 12 12 13 13 15 16 17 17 16 14 13
9 10 11 12 10 8 6 6 8 11 12 11 11 10 10 10 10 10 10 10 11 11 10 10 9 7 6 4 3 4 5 5 5 4 4 3 2 2 3 4 5 5 5 6 7 7 8 8 7 6 6 6 5 5 4 3 3 3 4 4 4 3 3 4 5 6 6 7 9 10 11 12 13 13 13 13 13 13 15 16 17 17 17 17 16
13 13 14 14 11 8 7 6 8 11 13 12 11 11 11 11 11 10 10 11 12 12 11 11 10 8 6 4 3 1 1 2 3 3 3 2 2 3 3 4 5 6 6 6 7 7 8 7 6 6 5 4 4 3 2 1 1 2 2 3 2 3 4 5 6 7 9 10 11 12 13 14 15 15 15 15 15 15 15 16 16 17 18 19 19
14 13 13 14 12 10 10 9 8 10 14 13 11 11 11 10 11 10 10 11 12 12 11 9 8 7 7 6 5 5 3 1 1 2 2 2 2 3 3 3 4 5 6 6 6 6 7 7 6 6 4 4 3 2 1 0 1 2 2 3 3 3 4 6 7 8 9 11 12 13 15 16 16 17 17 17 17 17 16 17 17 17 18 20 21
14 14 14 14 13 13 13 12 10 10 14 15 14 13 11 10 9 8 8 9 8 8 8 6 5 5 5 5 5 4 3 1 1 2 3 4 4 4 3 3 4 5 6 7 7 7 7 7 6 5 4 3 3 2 1 1 1 2 2 3 3 3 5 6 7 9 10 12 13 15 16 18 18 19 19 19 19 18 18 19 19 19 19 20 21
14 14 13 14 15 15 14 13 11 10 12 14 15 14 13 12 10 8 7 7 7 6 6 5 3 2 2 2 1 1 1 0 2 3 4 5 5 5 4 5 6 5 5 7 9 8 8 7 6 5 4 2 2 1 1 0 1 1 1 2 2 4 5 7 8 10 12 13 15 17 18 19 20 21 21 20 20 20 20 21 20 20 20 20 20
17 16 14 14 15 15 16 16 14 11 9 11 13 13 11 11 11 11 10 9 8 8 7 6 5 4 3 3 2 2 3 3 4 5 6 6 5 5 5 6 6 5 5 7 9 9 9 8 6 5 4 3 3 3 3 2 1 1 1 2 4 5 7 8 10 12 14 15 17 18 19 20 20 20 19 19 20 21 21 20 20 19 20 20 20
20 18 16 15 14 14 17 19 19 16 13 12 13 14 14 13 12 12 12 11 10 10 9 9 8 7 6 6 6 6 6 6 7 8 8 8 7 6 6 6 6 6 6 9 10 10 9 8 7 6 6 6 5 5 4 3 2 1 2 3 5 7 8 10 12 14 15 16 17 18 18 18 17 18 18 18 19 20 19 17 18 18 20 21 21
21 20 19 17 14 13 13 16 19 21 21 20 18 17 17 16 12 11 12 12 11 10 10 9 8 8 8 8 8 9 9 9 10 10 11 10 9 8 8 8 8 7 9 11 11 10 9 8 8 8 8 7 5 4 3 2 1 2 3 5 6 8 10 11 12 13 13 14 15 15 15 15 15 16 15 15 15 15 15 15 16 17 18 20 21
22 21 20 19 18 16 13 13 16 20 23 26 25 24 23 21 17 15 15 14 14 13 12 12 12 13 13 13 12 12 13 13 13 14 13 12 11 10 10 10 10 10 11 12 12 11 11 10 10 9 8 6 5 3 2 1 1 3 4 6 8 8 9 9 10 11 12 14 14 15 14 13 14 14 15 15 16 16 16 17 18 17 18 19 20
22 21 21 20 21 20 17 14 13 15 18 21 24 26 27 26 25 25 24 22 21 20 20 19 19 19 19 18 17 17 17 16 15 15 14 13 13 13 12 11 11 11 12 13 13 13 12 12 10 8 6 5 4 3 1 0 2 4 5 6 7 7 8 9 10 12 13 15 16 16 15 14 15 16 17 17 18 19 19 18 18 19 19 19 19
24 23 22 21 21 21 20 18 15 12 12 14 16 19 20 20 21 23 25 25 24 22 21 21 21 20 20 20 20 20 19 17 15 14 14 13 13 12 12 12 12 12 12 13 14 14 13 11 10 8 6 4 4 2 1 2 3 4 5 6 7 8 9 11 13 14 16 16 17 16 15 15 16 17 17 17 17 18 19 19 19 20 20 19 19
26 25 25 23 23 21 20 20 19 16 13 12 11 12 14 17 18 19 21 22 20 19 18 17 17 18 19 19 18 15 12 12 14 15 15 14 12 11 11 12 12 13 14 14 13 14 14 12 9 7 6 4 3 2 2 4 4 5 6 7 8 10 12 13 15 16 17 17 17 17 16 15 16 16 16 17 18 19 19 20 20 20 20 19 19
26 27 26 25 24 23 22 22 21 20 18 16 13 10 11 15 17 18 19 20 19 19 17 15 14 15 18 19 19 15 10 10 14 17 17 16 15 13 13 13 13 14 15 15 14 14 13 11 9 7 5 4 3 3 3 4 5 6 8 9 10 12 14 16 17 18 18 18 18 18 17 16 16 17 17 18 20 20 21 21 20 20 19 19 19
27 28 28 27 25 24 23 23 22 20 19 18 17 15 14 13 13 13 14 16 18 18 18 16 15 16 17 17 18 17 14 14 16 18 18 18 17 16 15 14 14 15 15 14 13 13 11 9 9 7 5 4 3 3 2 3 5 7 9 11 13 14 16 18 18 18 19 19 19 20 20 19 19 19 19 19 20 20 21 21 22 22 21 20 20
28 29 29 29 27 25 23 23 23 23 21 19 19 18 17 17 15 11 9 9 10 12 14 14 14 16 17 15 14 14 15 16 18 19 20 19 19 18 17 16 17 17 16 13 12 12 10 9 9 8 6 4 3 2 2 3 5 7 9 12 15 16 17 18 19 19 20 20 20 21 22 22 22 20 19 19 20 21 21 21 22 22 21 20 20
28 29 29 29 29 26 24 23 23 24 23 21 21 21 20 20 19 16 12 8 5 6 8 9 10 12 14 14 12 12 14 16 19 20 21 21 20 19 19 19 19 16 14 11 11 11 11 10 9 8 5 3 2 2 2 3 5 8 11 13 15 17 19 19 20 21 21 21 22 22 23 23 22 21 20 21 22 22 22 21 21 21 21 21 20
28 29 29 29 29 28 25 21 21 23 23 22 22 23 23 23 22 20 17 14 12 12 11 11 12 12 12 12 13 13 14 16 18 20 22 22 22 21 22 22 20 17 13 11 10 11 11 10 9 7 4 3 2 1 2 4 6 9 12 15 17 19 20 21 22 22 22 22 23 24 24 23 22 21 21 23 23 22 22 21 21 22 22 21 21
27 27 27 28 29 29 26 19 16 17 20 21 22 23 24 25 25 25 23 20 19 18 18 17 17 15 13 12 13 14 15 17 19 21 23 23 23 23 23 23 21 17 14 12 11 10 10 9 7 5 3 2 2 1 2 5 8 10 13 16 18 20 21 22 22 22 22 23 23 24 23 23 23 23 23 24 23 22 22 22 22 23 22 22 22
26 26 26 26 26 28 26 21 16 13 13 14 17 20 21 22 22 22 22 21 21 22 21 21 20 19 18 17 17 17 18 19 21 22 23 23 23 22 21 20 19 17 14 13 11 10 9 8 5 3 2 2 2 1 4 6 9 12 14 17 19 20 21 22 22 22 22 23 23 24 23 23 24 24 23 23 23 22 22 22 23 23 23 23 23
25 25 25 25 25 25 26 23 18 15 13 12 13 15 16 17 17 17 18 20 22 24 24 24 25 25 24 23 22 23 24 25 25 24 24 25 24 20 17 17 16 14 13 12 10 8 8 6 4 2 2 2 1 3 6 8 10 13 16 19 20 21 21 22 21 21 22 23 24 24 24 24 25 25 24 23 23 22 22 23 23 23 24 23 21
23 23 23 23 22 23 25 23 19 17 16 15 13 12 13 14 15 17 18 19 22 24 25 26 26 27 29 29 28 28 30 30 30 29 28 26 22 19 17 16 14 12 12 11 9 8 6 5 3 2 3 2 2 5 7 9 11 15 18 20 21 22 22 22 22 22 23 23 24 24 25 25 26 27 26 24 24 23 23 23 24 23 22 21 21
20 20 21 20 20 21 22 22 20 19 18 17 14 12 12 13 15 17 19 21 23 25 27 29 29 29 30 31 33 34 34 32 32 31 29 25 21 19 17 15 13 11 10 9 8 7 5 4 3 4 3 1 3 6 8 10 13 16 18 20 22 22 22 22 22 23 22 23 24 25 26 27 28 28 28 27 26 26 25 25 25 25 23 22 23
18 18 18 18 19 19 20 20 20 19 19 17 14 13 13 13 14 17 20 22 22 20 20 23 28 31 32 32 34 34 33 31 30 29 26 23 22 20 17 13 11 10 9 8 7 6 5 4 5 5 2 1 5 7 9 11 14 17 19 21 21 22 22 21 21 22 22 23 24 26 27 29 29 28 28 28 28 27 26 26 25 25 25 24 23
14 15 15 16 17 18 17 18 18 18 18 16 14 13 13 13 14 17 19 20 19 17 14 14 20 28 31 31 30 30 29 28 27 26 23 22 20 18 15 12 11 9 8 7 7 6 4 5 6 4 1 2 5 8 10 12 15 17 19 20 21 21 21 21 21 21 22 23 24 26 27 29 29 29 29 29 28 27 26 26 26 25 25 24 23
9 11 11 13 15 17 16 15 16 16 16 15 13 13 13 12 13 16 17 17 19 21 20 19 21 26 28 28 27 26 25 25 25 23 21 20 18 16 14 13 11 9 8 7 6 5 5 6 6 4 1 4 6 9 11 13 15 17 19 20 20 20 20 20 20 22 23 23 24 26 27 28 29 29 29 29 28 27 26 26 26 25 24 23 22
7 7 8 10 12 13 13 13 14 14 14 13 12 11 11 12 13 15 16 18 19 22 24 26 27 28 28 26 23 22 22 23 23 21 19 17 15 15 15 13 11 9 8 7 6 5 4 5 5 3 2 4 7 9 11 12 15 17 19 19 19 19 19 19 21 22 23 24 25 26 27 28 29 29 29 29 27 27 26 26 26 25 24 22 21
12 11 11 12 12 11 11 12 12 13 12 12 12 12 12 14 16 17 18 19 21 23 25 27 28 28 27 23 20 18 20 21 21 18 16 15 15 16 15 13 10 9 8 6 6 4 3 3 3 3 2 5 7 8 10 12 14 16 18 18 18 18 18 19 20 22 23 24 25 26 26 27 28 28 28 28 27 26 26 25 25 24 23 22 20
17 17 17 17 16 15 14 13 13 14 14 15 16 17 17 17 19 20 21 21 22 24 26 27 26 25 23 20 18 18 18 18 16 15 15 16 16 16 14 12 10 8 7 6 5 5 4 3 2 2 3 5 6 7 9 11 14 16 17 17 16 16 16 18 20 22 23 23 24 25 25 26 27 27 27 26 26 25 25 24 24 23 22 21 19
21 21 21 21 20 19 18 18 18 18 19 19 20 21 21 21 21 22 23 22 23 24 25 25 23 21 20 18 18 18 16 15 15 16 17 17 16 15 13 11 9 8 7 6 6 5 4 3 3 3 4 5 6 7 8 11 13 15 16 16 16 15 16 17 19 22 23 23 23 24 24 25 26 26 25 25 25 25 24 23 23 23 22 21 18
24 24 24 23 23 22 21 21 21 22 22 22 22 22 23 23 23 23 22 21 22 22 22 22 21 20 18 17 17 16 16 16 17 18 17 16 15 13 11 9 8 7 7 7 6 6 4 3 3 4 4 5 6 7 9 11 13 14 17 17 16 16 16 16 18 20 21 22 22 23 24 25 25 25 24 24 24 23 23 22 22 21 21 20 18
26 26 25 25 24 24 23 23 24 23 24 24 24 24 23 23 22 21 20 20 20 20 20 20 20 18 17 16 16 17 18 19 19 17 16 15 13 11 9 8 7 7 7 7 7 6 5 4 4 4 5 6 6 7 9 12 13 14 16 18 17 16 16 15 17 19 20 21 21 22 23 23 24 24 24 23 23 23 22 21 21 20 20 19 17
25 25 25 25 24 24 23 23 23 23 23 23 23 23 22 21 20 19 19 19 19 19 18 18 18 17 17 18 19 20 20 19 17 16 14 12 10 9 7 7 7 7 7 7 7 6 5 4 4 4 5 6 7 8 10 12 13 14 15 17 18 17 16 15 15 17 18 19 21 22 22 23 23 23 23 23 23 23 22 21 20 19 19 18 17
23 23 23 23 22 22 22 22 22 21 21 21 22 21 21 20 20 19 19 19 18 18 18 17 18 18 19 20 20 19 18 17 15 13 12 10 8 7 6 5 5 6 6 7 6 5 5 4 5 5 5 6 7 8 10 12 13 13 13 15 17 17 17 16 15 16 17 18 20 21 21 22 22 23 24 23 23 23 23 21 20 19 18 17 16
Wind_Direction
190 196 206 214 218 210 208 220 224 213 212 214 209 212 224 230 231 230 228 230 235 234 226 222 223 229 232 235 239 242 239 233 222 209 202 185 161 150 144 141 137 131 130 131 131 129 122 118 117 115 113 112 108 103 101 101 101 103 103 96 93 90 83 88 103 112 82 37 19 19 18 18 19 20 20 19 20 20 18 16 13 8 4 2 358
192 200 210 213 217 215 209 214 218 211 210 217 220 220 221 223 229 232 230 232 241 244 238 230 229 234 237 239 242 244 244 240 237 235 230 223 205 182 168 159 153 147 141 138 139 143 137 123 120 122 116 109 108 108 106 106 105 101 94 82 79 78 69 76 98 113 89 51 33 29 25 24 24 24 22 21 20 19 19 19 19 18 14 10 5
200 204 210 214 216 213 211 213 215 212 212 217 223 228 227 222 225 230 230 228 231 236 240 237 234 237 241 243 243 242 239 237 239 242 242 242 239 223 205 195 185 175 167 160 156 160 161 150 140 140 139 124 113 114 114 108 97 81 73 58 52 55 51 48 61 80 75 55 37 34 32 27 24 24 21 20 20 18 18 18 17 17 15 12 9
210 212 214 217 216 213 214 217 217 216 219 221 224 230 233 227 225 229 232 231 228 228 236 241 242 243 244 247 249 246 244 240 240 245 250 255 257 252 244 234 227 221 210 197 187 183 182 179 174 169 168 168 151 137 133 127 103 62 54 42 33 36 34 28 32 44 53 50 41 34 30 26 22 18 14 13 13 13 13 11 9 9 8 8 7
214 218 219 220 218 216 218 220 219 220 224 228 228 229 232 229 226 227 231 232 229 225 226 235 246 254 256 259 258 255 253 249 248 249 253 261 267 267 263 256 253 251 244 243 237 224 217 210 202 199 198 202 203 197 197 198 192 148 52 45 31 24 19 18 21 26 32 39 42 34 24 20 18 14 9 6 5 4 4 3 3 2 360 0 3
211 218 223 223 219 217 218 218 217 220 227 231 232 231 231 228 224 223 224 225 228 234 236 238 252 266 271 274 273 269 264 258 257 258 258 265 275 281 277 267 262 263 258 256 257 254 250 243 235 231 227 224 222 216 211 211 213 217 206 109 45 26 18 16 17 16 18 22 27 25 18 14 11 9 6 4 2 0 357 356 356 356 354 354 356
209 215 219 220 217 216 216 215 215 220 227 231 233 233 230 226 223 218 215 220 234 246 249 254 267 271 268 271 276 276 271 266 268 270 269 271 277 286 287 279 270 267 267 264 263 263 262 259 256 253 249 247 240 231 226 224 228 236 241 249 290 3 9 12 11 8 8 10 9 8 8 8 5 3 2 1 2 0 357 354 350 348 349 349 349
207 212 213 212 212 213 213 215 219 222 226 230 232 232 230 227 228 229 229 233 241 249 256 263 271 270 265 266 270 274 275 278 284 285 279 275 273 278 284 282 275 270 271 272 268 267 271 270 265 261 260 259 253 247 245 239 235 233 233 242 256 281 337 0 359 354 355 0 360 355 353 354 354 354 354 358 360 359 357 353 345 342 342 342 343
205 208 208 208 209 211 213 218 224 227 228 228 228 229 229 227 231 240 244 241 239 243 250 256 262 265 266 265 263 265 271 279 285 284 277 274 274 274 277 277 274 272 274 275 271 270 275 275 268 263 262 261 257 253 250 248 246 243 240 242 246 256 297 325 333 338 343 345 344 340 339 341 346 348 349 353 354 349 345 344 340 338 336 335 338
207 207 207 209 209 212 217 222 225 228 231 232 231 230 230 228 230 238 240 237 236 237 237 241 251 259 261 260 262 263 264 269 275 277 273 271 273 274 274 273 271 272 273 273 271 270 272 272 268 263 261 261 258 253 248 244 243 246 251 252 250 263 287 303 315 326 331 327 324 325 326 330 337 340 339 341 340 336 336 338 336 335 335 335 336
213 210 208 209 210 211 215 219 222 225 229 232 233 232 231 230 231 233 231 229 233 234 232 232 240 248 252 255 264 268 264 264 271 275 272 269 268 268 268 268 266 266 266 267 270 271 273 276 273 266 263 262 258 251 244 237 233 234 236 231 235 258 278 297 312 311 307 301 299 305 309 313 320 324 326 327 327 328 332 332 331 331 333 334 328
226 221 215 211 210 208 209 212 215 219 224 227 229 229 229 229 229 230 228 227 228 229 225 223 228 239 247 249 251 254 255 260 269 271 268 265 264 262 260 260 260 260 261 262 265 268 271 274 273 270 268 264 258 248 235 223 218 216 211 212 225 240 255 285 297 291 286 284 284 286 287 293 303 310 315 318 319 322 325 325 326 326 325 321 311
358 235 221 215 213 212 213 213 214 217 220 222 221 221 223 224 222 225 226 225 225 223 219 218 222 230 239 244 245 246 250 258 263 260 255 253 254 254 254 256 258 258 259 261 263 266 268 269 270 272 271 265 256 241 222 209 206 207 209 216 225 236 261 282 281 274 273 274 275 276 278 285 295 303 308 312 315 318 320 320 321 321 317 315 310
357 355 252 218 217 219 223 226 225 224 222 223 223 224 227 228 227 229 231 229 229 225 222 224 227 229 234 244 252 252 250 248 240 226 221 230 245 254 258 262 263 261 261 264 268 273 276 277 276 274 271 264 247 222 206 202 204 206 207 213 227 252 272 274 268 267 271 273 273 278 284 291 298 304 309 311 314 316 316 315 316 316 314 312 310
353 335 312 295 274 245 233 231 230 227 225 228 230 226 225 224 222 224 226 228 230 229 227 228 231 233 238 243 246 241 231 220 208 192 184 192 236 277 281 281 277 269 267 270 275 281 287 290 281 269 259 241 216 200 197 199 200 200 205 221 242 257 261 262 268 277 281 281 284 290 296 301 305 310 313 315 315 314 310 308 310 310 310 309 308
14 3 344 317 297 284 266 246 232 216 207 209 206 191 174 166 169 178 187 198 208 210 208 210 214 220 226 227 224 215 204 198 196 190 180 173 10 349 320 303 299 266 262 276 291 298 308 301 273 245 222 203 191 190 195 197 198 207 221 232 240 242 245 260 275 283 287 289 292 295 298 303 309 313 316 316 314 310 306 304 306 308 308 306 306
15 18 16 0 328 294 272 255 237 220 206 195 181 167 155 145 143 150 160 167 171 169 166 166 169 175 186 193 193 192 194 200 205 198 182 171 25 27 37 35 71 84 80 76 73 80 97 112 184 194 189 184 183 188 197 204 214 225 228 225 222 231 247 268 281 289 297 300 302 305 307 309 311 312 314 313 309 308 305 304 307 309 307 303 302
3 15 18 7 350 316 280 257 231 215 206 193 179 169 163 156 150 147 150 151 151 151 152 148 143 141 144 151 164 183 199 208 207 198 180 157 79 63 90 109 112 113 111 109 113 119 121 124 142 168 172 171 173 181 191 207 219 219 215 212 214 228 247 269 288 297 302 305 307 311 311 311 311 310 310 308 306 303 302 303 307 309 305 300 298
333 329 330 334 343 344 316 273 235 213 200 191 189 186 177 168 160 153 156 157 151 149 151 147 140 137 135 139 164 193 208 208 198 189 174 153 127 112 120 131 136 140 139 132 131 132 131 129 134 148 157 157 161 168 177 195 209 205 207 216 219 234 263 282 296 301 304 307 310 312 312 312 312 310 309 308 305 301 298 298 302 306 305 300 299
324 318 311 306 312 326 323 294 252 226 212 202 195 189 179 171 165 159 159 160 155 148 146 142 133 123 111 98 80 62 244 218 198 189 178 159 144 139 138 143 148 151 152 148 142 139 137 135 132 132 139 145 150 158 169 185 219 215 224 245 256 270 288 299 305 308 310 312 312 312 313 312 311 312 311 310 309 307 303 299 298 301 302 302 299
310 308 305 299 292 291 294 293 277 240 226 219 207 194 186 179 174 169 161 157 153 147 141 133 121 105 85 63 45 33 21 12 189 193 190 178 168 164 162 168 174 173 168 161 155 149 145 142 138 136 138 138 137 143 154 178 271 270 277 295 300 299 302 307 310 312 314 314 313 313 314 314 315 315 314 313 312 310 306 301 298 296 296 298 297
304 298 294 289 285 280 275 276 279 257 233 223 215 209 203 194 186 181 174 168 161 152 146 140 124 99 75 52 37 29 25 36 172 186 187 184 180 177 183 194 196 195 184 171 162 155 151 148 145 144 144 143 140 139 151 265 285 291 301 310 312 312 314 313 314 316 316 317 318 319 319 320 320 319 317 315 312 309 304 300 298 296 294 292 292
307 300 292 282 278 276 270 265 268 260 236 222 218 216 213 209 209 214 214 205 194 182 175 173 161 124 96 68 43 36 30 287 203 189 177 177 181 181 186 194 196 196 193 181 172 164 159 155 150 146 146 150 149 136 123 247 296 327 331 324 321 318 317 316 317 317 319 321 322 321 321 322 322 320 318 316 312 309 305 301 298 296 294 292 290
303 301 297 286 273 265 261 261 265 261 238 218 212 211 213 217 214 214 220 221 210 201 195 194 192 187 187 197 199 191 188 199 210 202 185 177 181 181 179 181 182 184 181 176 171 167 163 160 156 151 148 143 136 131 123 117 104 89 30 325 320 316 316 318 319 320 321 321 321 321 321 321 321 318 316 315 313 312 310 307 305 304 304 304 303
299 296 296 292 281 264 253 252 255 254 241 228 219 213 216 219 209 200 205 212 209 205 201 199 201 200 198 200 201 196 191 191 193 191 186 181 181 182 180 175 173 177 173 166 163 160 158 156 149 143 140 137 136 134 128 118 105 29 326 316 316 317 318 320 321 321 322 323 323 323 321 320 319 318 317 318 318 317 316 314 314 316 319 318 315
296 293 289 286 286 284 266 251 249 247 239 235 233 225 217 213 206 198 199 201 202 202 200 201 206 208 208 208 205 195 189 189 188 184 185 187 185 180 177 170 164 167 165 161 160 158 153 149 145 142 140 140 141 137 124 108 63 322 318 319 322 324 325 325 325 326 328 329 328 324 320 319 319 319 320 320 318 317 316 315 314 315 317 316 312
293 290 285 279 279 284 282 262 250 246 239 234 232 228 225 226 226 219 208 199 195 198 204 210 212 211 210 209 207 198 189 187 188 185 184 185 181 174 170 166 163 163 163 161 160 157 151 147 147 146 145 143 140 129 119 115 323 319 326 330 332 333 333 333 335 337 337 336 333 329 325 323 321 320 321 320 318 318 317 314 311 309 310 310 306
290 287 283 279 275 275 275 272 261 249 240 235 230 227 229 232 232 227 222 216 210 206 206 206 207 208 206 201 196 192 190 191 194 194 192 187 180 173 169 167 167 167 165 162 157 153 150 148 145 145 146 145 139 130 126 69 337 338 342 346 348 346 347 346 345 344 343 341 338 336 331 325 322 323 323 319 318 320 320 316 309 308 309 307 300
286 283 279 276 273 270 268 269 268 259 247 240 234 229 229 232 233 231 228 223 218 214 210 205 204 204 202 198 192 189 191 196 200 200 199 193 186 181 176 173 171 168 167 164 158 152 151 149 148 150 151 148 140 126 79 11 3 3 5 7 4 358 356 354 351 348 346 344 340 336 332 327 323 323 321 315 313 316 318 316 311 309 309 304 297
279 278 275 273 270 268 266 263 260 259 257 253 246 237 232 231 231 228 223 219 218 217 215 212 209 204 199 195 193 190 193 198 195 193 193 190 186 185 181 177 173 167 164 165 162 157 154 152 152 153 151 141 125 91 44 22 18 17 14 11 5 360 358 357 353 350 347 344 340 335 331 324 319 318 317 314 313 314 317 317 314 309 305 299 294
269 269 270 270 266 264 264 262 256 251 247 243 240 238 234 233 233 231 227 222 219 219 218 214 208 203 197 192 189 187 184 185 188 189 189 185 181 179 177 174 171 168 166 166 164 161 161 156 150 146 142 133 108 74 49 31 20 10 4 2 1 359 358 355 353 350 347 343 339 335 329 322 317 316 317 316 315 315 316 317 313 308 301 296 292
261 261 262 263 264 263 260 258 255 250 242 233 227 222 217 218 228 239 237 226 218 218 219 211 197 192 192 191 190 186 179 177 184 187 185 180 178 177 175 171 167 166 169 171 165 161 162 159 150 146 145 135 111 85 55 28 15 5 358 356 356 357 356 353 351 349 346 343 338 334 330 326 322 320 318 317 316 315 315 314 311 307 303 297 292
255 256 256 255 258 260 258 253 251 247 240 230 223 216 208 205 210 218 221 218 215 214 211 199 185 181 185 188 190 189 182 177 179 183 180 177 176 174 170 167 164 164 170 175 167 157 155 154 150 150 149 141 127 106 53 20 9 3 358 355 352 352 352 351 350 349 347 344 340 336 333 329 326 323 321 320 319 316 312 310 309 307 303 298 294
253 254 253 251 251 254 254 252 247 243 237 229 221 215 211 210 208 200 190 189 197 199 193 181 168 170 177 180 180 182 181 176 175 178 177 175 174 171 164 160 161 166 175 179 169 159 156 155 153 153 151 149 147 119 51 16 3 359 356 353 350 349 350 352 352 350 348 344 341 338 334 330 326 324 322 322 321 317 311 308 308 306 302 299 296
250 251 251 249 248 247 248 250 247 241 234 227 221 215 213 213 212 208 210 216 210 193 182 178 173 172 177 181 178 175 173 172 173 175 175 173 170 167 161 159 162 167 170 169 163 159 159 159 157 155 157 163 161 116 35 4 358 357 354 349 347 349 351 353 354 351 347 345 342 339 335 330 327 325 324 323 320 314 309 307 307 305 302 299 297
245 245 246 246 245 243 242 243 241 236 231 227 223 220 217 215 213 213 218 222 211 191 179 176 176 172 170 175 176 170 168 171 173 174 173 172 170 168 164 163 164 164 161 159 159 159 160 161 159 156 160 168 154 93 8 353 352 352 349 347 348 350 353 354 353 350 347 346 343 339 333 329 327 327 326 323 318 313 309 307 307 304 302 301 300
241 239 239 241 241 239 238 235 229 225 224 222 220 219 218 216 215 213 211 207 199 188 179 173 169 163 159 164 168 166 166 168 170 170 169 169 171 173 171 167 163 162 161 161 162 162 162 164 162 155 154 155 136 28 350 348 347 344 344 348 351 352 354 354 352 349 347 345 343 338 332 329 328 328 326 321 317 314 311 309 309 307 306 305 302
239 236 236 237 237 235 234 232 227 222 218 212 208 211 214 213 212 210 205 196 189 184 178 173 170 166 161 162 166 166 164 162 162 163 165 167 172 176 175 166 158 158 160 161 163 165 164 163 162 152 143 140 92 355 343 343 342 340 344 349 351 352 353 353 350 349 348 345 342 338 334 331 331 330 326 320 316 314 312 311 310 309 307 306 303
236 233 233 234 233 231 229 227 222 218 213 207 203 203 205 205 203 202 199 193 188 183 178 174 172 169 165 163 164 164 161 160 161 164 167 171 176 179 172 162 155 154 157 160 163 164 160 156 155 147 140 127 13 344 338 337 339 341 346 350 349 350 353 352 349 348 348 345 342 340 336 333 332 331 328 323 318 316 314 313 311 309 306 304 303
229 226 227 228 226 224 222 219 215 211 205 203 204 202 202 204 203 200 198 194 190 187 182 178 175 171 169 167 167 167 165 163 164 167 169 174 179 177 170 162 157 154 156 159 160 159 157 150 146 147 145 94 343 337 335 338 341 345 348 349 348 350 353 352 348 348 349 347 345 343 339 336 335 333 330 327 324 320 317 315 313 311 309 307 306
220 217 219 219 217 217 215 212 210 207 202 201 203 206 208 210 207 203 201 197 190 185 183 180 174 170 169 169 168 168 167 163 164 168 172 175 175 173 168 164 158 153 154 155 156 157 157 151 153 158 163 326 333 335 339 343 346 347 348 348 348 350 352 351 349 349 350 349 347 345 342 341 339 335 331 328 327 324 321 318 317 315 314 313 311
206 207 210 209 208 209 210 207 204 202 199 198 202 208 211 209 204 201 198 191 180 171 169 168 163 161 162 163 163 164 164 164 167 173 175 173 172 171 168 164 157 150 148 148 151 153 155 159 168 180 213 322 332 339 346 348 348 349 348 348 349 351 352 351 350 350 350 349 349 348 346 344 342 338 335 332 329 326 324 323 321 320 318 316 315
189 197 201 200 199 200 202 201 197 195 194 195 199 203 204 201 197 194 189 180 170 165 162 158 152 150 152 156 160 163 166 169 174 176 173 171 172 172 167 161 156 151 149 151 152 153 158 172 186 202 263 327 336 345 350 349 348 349 348 348 350 351 351 350 350 349 349 349 350 350 350 348 345 342 339 336 332 329 328 327 325 323 321 319 318
145 163 169 172 178 182 186 188 187 186 186 187 186 187 187 185 182 178 172 166 162 157 153 150 148 147 149 154 160 167 171 174 174 173 171 171 173 171 167 164 161 159 161 164 163 158 164 186 203 219 284 326 338 347 349 347 348 350 349 349 350 351 351 351 350 349 348 348 349 351 351 349 347 344 341 339 335 332 331 331 329 326 324 322 321
102 109 118 128 138 145 153 162 165 164 163 161 156 154 158 162 161 158 156 154 151 146 143 143 145 148 151 156 162 170 174 173 173 174 175 174 171 168 167 166 165 168 172 175 174 173 183 207 220 236 288 319 336 347 347 347 351 352 350 349 350 351 352 352 351 348 347 347 348 349 350 349 348 346 343 340 338 335 333 333 332 330 327 325 325
94 98 102 107 112 117 124 131 134 135 136 135 132 132 136 141 144 144 145 145 142 139 139 141 144 148 152 156 163 169 171 171 171 173 172 169 167 166 167 167 171 177 182 185 188 196 210 236 254 264 291 318 337 347 348 351 355 355 352 351 352 352 353 353 351 349 348 347 347 349 350 349 349 348 346 344 342 340 339 339 338 336 333 330 331
87 91 94 98 100 103 107 113 116 116 117 119 120 122 126 130 132 134 136 138 137 137 137 140 145 149 152 157 163 166 166 165 164 162 160 161 162 164 166 171 178 185 189 192 198 208 222 252 272 278 300 326 342 350 353 356 358 357 355 354 355 355 354 352 351 350 350 349 349 350 351 351 351 351 350 349 348 346 345 346 346 345 341 338 339
84 86 89 93 96 98 100 103 105 106 108 110 112 114 118 122 125 126 128 131 132 134 137 141 146 149 152 156 160 163 162 160 158 156 156 159 161 163 169 179 187 191 193 196 203 215 232 256 271 279 302 327 344 355 360 359 357 356 357 358 358 357 355 353 350 351 352 353 353 354 354 355 355 355 355 355 354 351 349 349 351 352 349 347 347
85 86 88 89 91 94 97 99 101 103 106 109 110 111 113 116 118 121 126 130 133 137 142 145 148 150 151 151 153 155 155 154 154 154 156 158 161 167 176 187 192 194 197 202 210 222 237 257 269 278 300 327 344 356 0 358 354 354 356 358 358 357 355 353 350 350 353 356 357 358 358 359 360 0 1 0 359 358 356 355 356 358 357 355 354
87 89 90 90 91 94 97 99 101 104 107 109 111 112 114 116 119 123 129 133 136 140 143 146 147 149 149 149 150 151 152 151 152 154 156 157 163 171 179 186 190 193 198 207 219 232 244 258 267 276 298 323 338 349 353 352 350 350 353 357 358 357 355 353 351 351 354 358 1 2 3 4 5 6 7 6 5 4 2 1 3 5 4 2 1
90 92 93 93 95 97 100 101 103 105 108 111 114 116 119 122 124 129 133 136 138 140 143 145 147 148 148 148 149 149 150 150 151 152 153 156 162 168 173 181 188 193 200 214 227 235 241 250 262 276 298 319 332 340 344 345 344 344 347 353 357 358 356 354 353 353 356 1 4 5 7 9 11 11 11 10 9 8 7 8 9 10 11 11 10
Height
802 804 804 804 806 808 810 813 814 816 818 819 819 819 820 822 825 827 827 828 829 830 832 833 834 836 837 838 839 840 841 842 843 843 843 843 843 843 843 843 843 844 844 845 845 846 847 847 848 849 849 850 850 851 851 851 852 852 853 853 853 854 855 855 857 859 859 859 859 859 858 857 856 855 854 854 853 852 852 851 850 849 848 847 846
800 802 803 804 806 808 810 812 813 815 816 817 818 818 819 821 824 826 827 828 829 830 832 833 835 836 837 838 839 840 841 842 843 844 844 845 845 845 845 845 845 845 845 846 846 847 847 848 848 849 850 850 851 851 852 852 852 852 853 853 853 854 854 855 856 857 858 858 858 858 857 856 855 855 854 853 853 852 851 851 850 849 849 848 847
800 801 802 803 805 807 809 810 812 813 815 815 817 818 819 821 823 825 826 827 829 830 831 833 834 835 837 838 839 840 841 842 843 844 845 845 846 846 846 846 846 846 846 846 846 847 847 848 849 849 850 850 851 851 852 852 852 853 853 853 853 854 854 854 855 856 857 857 857 857 856 855 855 854 854 853 853 852 851 851 850 849 848 847 846
800 801 802 803 805 807 808 809 811 812 813 814 816 818 819 820 821 823 825 827 828 829 831 832 834 835 836 837 838 839 841 842 843 844 845 846 846 847 847 847 847 847 847 847 847 847 847 848 848 849 850 850 851 851 852 852 852 853 853 853 854 854 854 855 855 855 856 856 856 856 856 855 855 854 853 853 852 852 851 850 849 849 848 847 846
800 800 801 803 804 806 807 808 810 811 812 814 815 817 818 819 820 822 824 825 827 829 830 832 833 835 836 837 838 839 840 841 842 842 844 845 846 847 847 847 847 847 847 847 847 847 847 848 848 848 849 849 850 851 851 852 852 853 853 853 854 854 855 855 855 855 855 856 856 856 855 855 854 854 853 852 851 850 850 850 849 848 847 846 845
800 800 801 802 804 805 806 807 809 810 811 812 814 815 817 818 819 820 822 823 825 827 829 831 833 834 836 837 838 839 840 840 841 841 842 843 845 847 848 848 847 847 847 847 847 847 847 848 848 848 848 848 849 850 851 851 852 852 853 853 853 854 854 855 855 855 855 855 855 855 855 854 854 853 852 851 850 849 848 847 846 846 845 844 843
799 800 801 802 803 804 805 806 808 809 810 811 812 814 815 817 818 819 820 821 824 826 828 830 831 833 834 836 838 839 839 840 840 841 842 842 843 845 847 848 847 846 846 846 846 846 846 847 847 847 847 848 848 849 850 851 851 852 852 852 853 853 853 854 854 854 854 854 854 854 854 853 853 852 852 851 850 849 847 845 843 843 843 842 841
799 800 801 802 803 804 805 806 808 809 810 811 811 812 814 815 817 818 818 819 822 824 826 828 829 831 833 835 837 838 839 839 840 841 841 841 841 843 845 847 847 846 845 845 845 845 845 846 846 846 846 847 847 848 849 849 850 851 851 851 852 852 852 853 853 853 853 853 853 853 853 853 852 851 850 849 848 848 847 846 844 842 841 840 840
800 800 800 801 802 803 805 806 807 808 809 810 810 811 812 813 814 815 815 817 820 822 824 826 829 831 832 834 835 836 837 838 839 841 841 840 840 841 842 844 845 844 843 843 843 843 843 844 844 844 845 845 846 847 848 848 849 850 850 851 851 851 852 852 852 852 853 853 853 852 852 852 851 850 849 848 848 847 847 847 846 844 841 839 838
800 800 801 801 802 803 804 805 806 807 807 808 809 809 810 810 811 811 812 814 816 818 821 824 827 829 830 831 833 834 835 836 837 839 840 839 839 838 839 841 841 841 841 841 841 841 841 841 842 842 843 844 845 846 846 847 848 849 849 850 851 851 851 852 852 852 852 852 852 852 852 851 851 850 849 849 848 848 847 846 844 843 841 837 835
801 801 801 802 802 803 803 804 805 806 806 806 807 808 808 809 810 810 810 812 814 815 817 821 824 827 828 830 831 832 833 834 835 836 837 837 836 836 837 838 838 838 838 838 839 839 839 839 839 840 841 842 843 844 845 846 847 848 849 849 850 850 851 851 851 851 852 852 852 852 851 851 851 850 850 849 848 847 846 845 844 842 841 839 836
801 801 802 802 802 802 803 803 804 804 805 806 806 807 807 808 809 809 810 811 812 814 816 818 821 825 827 828 829 830 831 832 833 834 834 834 834 835 835 836 836 836 836 836 836 837 837 837 837 838 838 839 840 842 843 844 845 846 847 848 848 849 849 850 850 851 851 851 851 851 851 851 850 850 849 848 847 846 845 844 843 842 841 840 838
801 802 802 802 802 802 802 803 803 803 804 804 805 806 806 807 808 808 809 810 811 814 816 817 819 822 824 825 826 827 829 830 831 831 832 832 832 833 834 834 833 833 834 834 834 834 835 835 835 835 836 836 838 839 841 842 844 845 846 846 847 847 848 849 849 850 850 850 850 850 850 850 849 848 848 847 846 845 844 843 842 841 839 838 836
802 802 802 802 802 802 802 802 802 803 803 804 804 805 805 806 807 807 808 809 811 813 815 816 818 820 822 823 824 825 827 828 829 830 830 831 831 832 832 831 831 831 831 832 832 832 833 833 833 834 834 835 836 838 840 841 842 843 844 845 846 846 847 847 848 848 848 849 849 849 848 848 848 847 847 846 845 844 843 841 840 839 838 836 834
802 802 802 802 802 801 801 801 801 802 803 803 804 804 804 805 805 806 807 808 810 812 814 815 816 818 820 821 822 824 825 827 828 829 829 830 830 830 829 829 829 829 830 830 831 831 831 832 832 833 833 834 836 837 839 840 841 842 844 844 845 845 846 846 847 847 847 848 847 847 847 847 846 846 845 844 843 842 841 840 839 838 836 834 832
802 802 802 801 801 801 801 801 801 802 802 803 804 804 804 804 805 805 806 807 809 810 812 814 815 817 818 820 821 822 824 825 827 827 828 829 828 828 828 827 828 828 829 829 830 830 830 831 831 832 833 834 836 838 839 840 841 842 843 843 844 845 845 846 846 846 846 846 846 846 846 845 845 844 844 843 842 841 840 839 838 836 834 832 830
804 804 803 802 802 801 801 801 801 802 802 803 803 804 804 805 805 806 807 807 809 810 811 813 815 816 818 819 820 822 823 824 826 826 827 827 827 826 826 826 827 827 828 829 829 830 830 831 831 832 833 835 836 838 839 840 841 841 842 843 844 844 845 845 845 845 845 845 845 845 845 844 844 843 842 841 840 839 838 837 836 835 833 830 828
805 805 804 804 804 803 802 801 801 801 802 802 803 804 804 805 806 807 808 808 809 810 812 813 814 816 817 818 820 821 822 824 825 825 826 826 825 825 825 826 826 827 828 829 829 830 830 831 832 833 834 835 836 838 839 840 840 841 842 843 843 844 844 844 844 844 844 844 844 844 844 843 842 841 841 840 839 838 837 835 834 833 831 829 827
806 805 804 804 804 803 803 802 802 802 802 803 803 804 804 805 806 807 808 809 810 811 812 813 814 816 817 818 820 821 822 823 823 824 824 824 824 824 825 825 826 827 828 829 829 830 831 832 833 834 835 836 837 838 839 839 840 841 842 842 842 843 843 843 843 843 843 843 843 842 842 841 840 839 839 838 837 836 835 834 833 831 829 828 826
806 805 804 803 802 803 803 802 802 802 802 803 804 804 805 805 806 807 809 810 811 811 812 813 814 815 816 817 819 819 820 821 821 822 823 823 823 823 824 825 826 827 828 829 829 831 831 832 834 834 835 836 837 838 839 839 840 841 841 841 841 842 842 842 842 842 842 841 841 840 840 839 838 837 836 835 835 834 833 832 831 829 828 826 824
806 805 803 802 801 801 801 801 801 800 801 802 803 804 804 805 806 807 808 809 810 811 812 812 813 814 815 816 817 817 818 819 820 821 821 822 822 823 823 824 825 826 828 829 830 831 832 833 834 834 835 836 837 838 838 839 839 840 840 841 841 841 841 841 841 840 840 839 839 838 837 836 835 834 833 832 832 831 830 829 828 827 826 824 822
804 803 803 802 801 800 800 800 800 799 800 800 801 802 803 804 805 806 806 808 809 810 811 811 812 812 813 814 815 816 817 818 819 820 821 822 822 823 824 825 826 827 828 829 830 831 833 834 834 835 836 836 837 837 838 838 839 839 839 840 840 840 840 840 839 839 838 837 837 835 834 833 832 831 830 829 828 827 826 825 824 823 822 821 820
802 802 801 800 800 799 799 799 799 799 798 798 799 800 801 801 802 803 804 805 807 808 809 810 811 811 812 813 814 815 816 817 818 819 820 822 823 824 824 825 827 828 829 830 831 832 833 834 835 835 836 836 837 837 838 838 838 839 839 839 839 839 839 838 838 837 836 836 834 833 832 831 829 828 827 826 824 823 822 821 820 819 818 817 816
801 800 799 798 798 797 798 798 798 798 797 797 798 798 799 799 800 801 802 804 805 806 808 809 810 811 812 813 814 814 815 816 817 819 820 821 823 824 825 826 827 828 829 830 831 832 833 834 835 835 836 836 836 837 837 838 838 838 839 839 838 838 838 837 836 836 835 834 832 831 830 829 827 826 824 823 821 820 818 817 816 815 814 812 811
799 798 797 796 795 795 795 795 796 796 797 797 797 797 797 799 799 799 800 802 803 805 806 807 809 810 812 813 814 814 815 816 817 818 820 821 822 823 825 826 827 828 829 830 831 832 833 834 834 835 836 836 837 837 837 838 838 838 838 838 838 837 836 836 835 834 833 832 830 829 828 826 825 824 822 820 819 817 815 814 812 811 810 808 807
796 795 795 795 794 793 793 793 793 794 794 795 796 797 797 798 799 799 799 800 802 803 805 807 808 810 811 813 814 815 815 816 816 818 819 820 822 823 824 826 827 828 829 830 831 832 833 834 835 835 836 836 837 837 837 837 838 838 838 837 837 836 835 835 834 833 832 831 829 828 826 824 823 821 820 818 817 815 814 812 810 809 807 805 804
793 793 792 792 792 792 791 791 791 791 791 792 794 795 796 797 798 798 799 799 800 802 804 806 807 809 810 812 813 814 815 815 815 817 818 820 821 822 824 825 826 827 828 830 831 832 833 834 835 835 836 836 836 836 836 837 837 837 837 836 836 835 834 834 833 832 830 829 828 826 824 823 821 820 818 817 815 814 812 810 808 807 805 803 801
791 790 789 789 789 789 789 789 789 789 788 789 790 791 793 794 795 795 796 796 797 799 801 803 804 805 807 809 811 813 813 813 814 815 816 818 820 821 823 824 826 827 828 829 830 832 833 834 835 835 836 836 836 836 836 837 837 836 836 836 835 834 834 833 832 831 829 827 826 824 822 821 820 818 816 815 813 811 810 808 806 804 803 801 799
788 787 786 786 786 786 786 786 787 787 786 786 787 788 790 791 792 792 793 793 794 795 796 798 800 802 804 806 807 809 810 811 812 813 815 817 818 820 822 823 825 826 827 829 830 831 833 834 834 835 836 836 836 836 836 836 836 836 835 835 834 834 833 831 830 829 827 825 824 822 820 819 817 815 814 812 810 808 807 806 804 802 800 799 797
784 783 783 783 782 783 783 784 784 785 785 785 785 786 787 788 789 790 792 793 793 793 794 795 797 799 801 802 804 806 808 809 810 812 814 816 818 820 821 823 824 825 827 828 830 831 832 833 834 835 835 835 835 836 836 836 835 835 835 834 833 832 831 830 828 826 825 823 821 820 818 817 815 813 812 810 808 806 804 803 801 800 798 796 794
780 779 779 779 779 779 780 781 781 782 783 783 783 784 785 787 788 788 789 790 791 792 792 794 795 797 798 799 801 803 806 807 809 810 812 815 817 819 821 823 824 825 827 828 829 831 832 832 833 834 834 835 835 835 835 835 835 834 834 833 832 831 829 828 826 824 822 821 819 818 816 815 813 811 809 807 805 803 801 800 798 797 795 793 791
775 774 774 775 775 776 776 777 778 779 780 780 781 781 783 785 787 788 789 788 788 789 791 792 793 794 796 797 798 801 803 805 807 809 811 814 816 818 820 822 823 825 827 828 829 830 831 832 832 833 834 834 835 835 835 834 834 833 832 831 830 829 827 825 824 822 820 819 817 816 814 813 811 809 807 805 803 801 799 797 795 794 792 790 788
770 769 769 770 771 772 772 773 775 776 776 777 778 779 780 782 785 787 788 787 787 788 789 790 791 792 794 795 797 799 801 803 805 808 811 813 816 818 820 822 823 825 827 828 829 830 831 831 832 833 833 834 834 834 834 834 833 832 831 830 828 827 825 824 822 820 819 817 816 814 812 810 809 807 805 803 801 799 797 795 793 791 789 787 785
765 765 765 766 767 768 768 769 770 772 773 774 775 777 778 780 782 784 785 785 786 787 788 789 790 791 793 795 796 798 800 802 804 807 810 813 815 817 820 822 824 825 827 828 828 829 830 831 832 832 833 833 833 833 833 833 832 831 830 828 827 825 823 822 820 818 817 815 814 812 810 808 807 805 802 800 798 796 795 792 790 789 786 784 782
760 760 760 762 763 763 765 766 767 768 770 771 772 773 775 777 779 780 781 782 783 785 786 788 790 792 793 795 797 798 800 802 805 807 810 812 815 817 819 822 824 825 826 827 828 829 830 831 831 832 832 832 832 832 832 832 831 830 828 827 825 823 821 820 818 816 815 814 812 810 808 806 805 803 800 798 796 794 792 790 788 786 784 782 779
754 755 756 757 758 759 761 763 764 765 766 768 769 771 772 773 775 776 778 780 781 782 784 786 788 790 793 795 797 798 800 802 805 807 810 812 815 817 819 821 823 824 825 827 828 829 830 830 831 831 831 832 832 832 831 830 829 828 827 825 823 821 819 818 816 815 814 812 811 809 807 805 802 800 798 796 794 793 790 788 786 783 781 779 777
749 750 751 753 754 756 758 760 761 763 764 765 767 768 770 771 773 774 776 777 779 781 782 784 786 789 792 795 797 798 800 803 805 808 811 813 816 817 819 820 821 823 824 826 827 828 829 830 830 830 831 831 831 831 830 829 828 827 826 824 822 820 818 817 816 814 812 811 809 807 805 803 801 799 797 794 792 790 788 786 783 781 779 777 775
745 746 747 749 751 753 755 757 759 760 762 763 765 766 768 770 771 773 775 776 778 779 781 782 784 786 789 792 795 797 800 803 806 809 812 814 816 818 819 820 821 822 824 825 826 828 828 829 829 830 830 830 831 830 829 828 827 825 824 822 820 819 817 816 814 813 811 809 807 805 803 801 799 797 795 793 790 788 786 784 781 778 776 774 772
741 742 744 746 748 750 752 754 756 758 760 761 763 764 766 768 770 772 774 776 777 778 779 781 783 785 786 789 793 796 799 801 804 808 811 814 816 818 819 820 821 822 823 825 826 827 828 828 829 829 830 830 830 829 828 827 825 824 822 820 819 817 816 814 813 811 810 808 806 804 802 799 797 795 793 791 788 786 784 781 779 776 774 772 769
738 740 742 744 746 748 750 752 754 756 758 760 761 763 765 767 768 770 772 774 776 777 778 779 781 783 785 787 790 793 796 799 802 806 809 813 815 817 818 820 821 822 823 824 825 826 827 827 828 829 829 829 829 828 827 826 824 823 821 819 818 816 815 813 812 810 809 807 805 802 800 798 795 793 791 788 786 784 782 779 777 774 772 769 767
736 738 740 742 745 747 749 751 752 754 757 759 760 762 764 766 767 769 771 773 775 777 778 778 778 780 783 786 789 792 795 798 803 806 809 812 814 816 818 819 820 821 823 824 825 826 826 827 827 828 828 828 828 827 826 825 823 822 820 818 817 815 814 812 811 809 807 806 803 801 799 796 794 791 789 786 784 782 779 777 774 772 769 767 764
736 738 740 742 744 746 748 750 752 754 756 758 760 762 763 765 767 768 770 773 775 777 780 782 781 781 784 788 792 794 797 801 804 807 809 812 814 815 817 819 820 821 822 823 824 825 826 826 827 827 827 827 827 826 825 824 822 821 819 817 816 814 812 811 810 808 806 804 802 800 797 795 792 790 787 784 782 779 777 775 772 770 767 765 762
738 739 741 742 744 746 748 750 752 754 756 758 759 761 763 765 767 769 771 774 775 776 779 782 783 784 787 791 794 797 800 803 806 808 809 811 813 815 817 819 820 821 822 823 824 824 825 825 826 826 826 826 826 825 824 823 821 820 818 816 815 813 811 810 809 807 805 803 801 798 796 793 790 788 785 783 780 778 775 773 770 768 766 763 761
741 742 742 744 746 748 750 752 753 755 756 758 760 762 763 765 767 769 772 775 777 777 778 781 783 786 789 793 796 799 801 804 806 808 810 811 813 815 817 818 820 821 822 822 823 824 824 825 825 825 826 826 825 824 823 822 821 819 817 816 814 812 811 809 808 806 804 801 799 797 795 792 789 787 784 782 779 777 774 771 769 767 764 762 760
743 744 745 746 748 749 751 753 754 756 758 759 761 763 765 766 768 770 773 776 778 779 780 782 784 787 790 794 797 800 803 805 807 808 810 812 814 815 817 818 820 821 821 822 823 824 824 824 825 825 825 825 824 824 823 822 820 818 817 815 813 812 810 809 807 805 803 801 798 796 794 791 789 786 784 781 779 776 773 771 768 766 763 761 759
747 747 748 749 750 752 753 755 757 758 759 761 763 764 766 768 770 772 774 777 779 780 782 784 787 790 793 796 799 802 804 805 807 808 810 812 814 815 817 818 819 820 821 822 822 823 823 824 824 824 824 824 824 823 822 821 820 818 816 815 813 811 810 808 806 804 802 800 798 796 793 791 789 786 783 781 778 775 773 770 767 765 763 760 758
751 751 752 753 754 755 757 758 759 760 762 763 765 767 768 771 773 775 777 779 781 782 784 786 790 793 796 798 800 802 804 805 807 809 810 812 814 815 817 818 819 820 821 821 822 822 823 823 823 824 824 824 823 822 822 820 819 818 816 814 813 811 809 808 806 804 802 800 798 796 793 791 788 786 783 780 778 775 772 769 767 765 762 760 758
756 756 756 757 758 759 760 761 762 763 765 766 768 770 771 773 775 777 780 782 784 785 787 790 792 795 797 799 800 802 804 806 807 809 811 812 814 815 817 818 819 819 820 821 821 822 822 823 823 823 823 823 822 822 821 820 819 817 816 814 812 811 809 807 806 804 802 800 798 796 793 791 788 785 783 780 777 775 772 769 767 764 762 760 758
761 761 761 762 762 763 764 765 765 767 768 769 771 773 774 776 778 780 782 784 786 788 790 792 794 796 798 799 801 803 804 806 808 810 811 813 814 815 817 817 818 819 820 820 821 821 822 822 822 822 823 822 822 821 820 819 818 817 815 813 812 810 809 807 806 804 802 800 798 796 793 791 788 785 783 780 777 775 772 770 767 765 762 760 758
766 766 766 767 767 768 768 769 770 771 772 773 774 775 777 779 781 783 785 787 789 790 792 794 795 797 799 800 802 803 805 807 809 810 812 813 814 815 816 817 817 818 819 820 820 821 821 821 822 822 822 822 821 820 819 818 817 816 815 813 811 810 808 807 805 804 802 800 798 795 793 791 788 786 783 780 778 775 772 770 767 765 763 761 759
771 771 771 771 772 772 773 773 774 775 776 777 778 779 781 783 784 786 788 789 791 792 794 795 797 798 800 802 803 805 806 808 809 811 812 813 814 815 816 816 817 818 819 819 820 821 821 821 821 821 821 821 820 819 819 818 817 815 814 813 811 809 807 806 805 803 801 799 797 795 793 791 788 786 783 781 778 775 773 770 768 766 763 761 760